TJS-1

Last updated on Sept. 28, 2020, 5:45 a.m. UTC

1 40892U 15046A   20271.94813579 -.00000178  00000-0  10000-3 0  9998
2 40892   0.0351 109.8911 0004178 241.1631 152.4140  1.00272779 18619
UTC
Height (km)
Latitude
Longitude
Inclination
Orbital Period
UTC large
Height (km)
Speed (km/s)
/
Latitude / Longitude
Inclination (degrees)
Orbital Period (minutes)
Azimuth
Elevation
Range (km)
Doppler Factor
iOS Compass Heading
iOS Angle

Next 30 passes for location: Hong Kong

Rise time Rise Azimuth (degrees) Set time Set Azimuth (degrees) Duration Max altitude (degrees)

No matching passes for this satellites